Tracking 22124 objects as of 25-Jan-2021
HD Live streaming from Space Station
objects crossing your sky now

STARLINK-1862

Track STARLINK-1862 now!
10-day predictions
STARLINK-1862 is classified as:


NORAD ID: 47149
Int'l Code: 2020-088AD
Perigee: 478.8 km
Apogee: 480.5 km
Inclination: 53.1 °
Period: 94.1 minutes
Semi major axis: 6850 km
RCS: Unknown
Launch date: November 25, 2020
Source: United States (US)
Launch site: AIR FORCE EASTERN TEST RANGE (AFETR)
aabbcc
Your satellite tracking list
Your tracking list is empty




NASA's NSSDC Master Catalog

Two Line Element Set (TLE):
1 47149U 20088AD  21025.25001157 -.01059256  00000-0 -37894-1 0  9996
2 47149  53.0543  54.6754 0001264  62.4233 233.3854 15.31098764 10318
Source of the keplerian elements: AFSPC